Regional Weather Roundup
Issued by NWS

Home | Current Version | Previous Version | Text Only | Print | Product List | Glossary On
Versions: 1 2 3 4 5 6 7 8 9 10 11 12 13 14 15 16 17 18 19 20 21 22 23 24 25 26 27
064
ASUS46 KSEW 221910
RWRWA

WASHINGTON REGIONAL WEATHER ROUNDUP
NATIONAL WEATHER SERVICE SEATTLE WA
1200 PM PDT FRI MAY 22 2015

NOTE:"FAIR" INDICATES FEW OR NO CLOUDS BELOW 12,000 FEET WITH NO
SIGNIFICANT WEATHER AND/OR OBSTRUCTIONS TO VISIBILITY.

WAZ505-507>509-222000-
SEATTLE, TACOMA, EVERETT, AND VICINITY

CITY           SKY/WX    TMP DP  RH WIND       PRES   REMARKS
EVERETT        CLOUDY    57  50  77 W9        29.99R
BOEING FIELD   CLOUDY    62  50  64 SW7       29.99S
RENTON         CLOUDY    60  50  69 S6        29.99S
SEATAC AIRPORT CLOUDY    60  50  69 SW9       30.00S
JBLM-MCCHORD   CLOUDY    60  51  74 W6        30.00R
PUYALLUP       CLOUDY    59  54  82 VRB6      30.01R
BREMERTON      CLOUDY    55  52  88 S14       30.02R
JBLM-FT LEWIS  CLOUDY    59  52  76 S8        29.99S
TACOMA NARROWS CLOUDY    56  49  77 VRB6      30.01R
$$

WAZ001-503-506-510-514-515-222000-
NORTH INTERIOR

CITY           SKY/WX    TMP DP  RH WIND       PRES   REMARKS
BELLINGHAM     CLOUDY    56  51  84 S9        29.96S
FRIDAY HARBOR  CLOUDY    59  51  75 S9        29.99R
EASTSOUND      CLOUDY    59  50  72 S8G16     29.95R
PORT ANGELES   CLOUDY    54  49  83 NW9       29.99R
PORT TOWNSEND  CLOUDY    59  54  82 NE5       29.98R
NAS WHIDBEY    CLOUDY    55  53  93 W5        30.02S
ARLINGTON      CLOUDY    57  50  77 SW6       29.99S
BURLINGTON     CLOUDY    57  54  88 S8G14     29.98S
$$

WAZ020-022-039-040-504-511-512-222000-
SOUTHWEST INTERIOR

CITY           SKY/WX    TMP DP  RH WIND       PRES   REMARKS
SHELTON        CLOUDY    54  50  86 SW13      29.98R
OLYMPIA        LGT RAIN  57  50  77 SW8       30.01R
CHEHALIS       CLOUDY    63  52  67 VRB7      30.01R HAZE
KELSO          CLOUDY    57  48  72 NW8       30.07R
VANCOUVER      CLOUDY    58  49  72 CALM      30.03R
SCAPPOOSE, OR  CLOUDY    59  51  75 S5        30.02R
PORTLAND, OR   CLOUDY    58  50  75 CALM      30.03S
$$

WAZ021-516-517-222000-
WASHINGTON COAST

CITY           SKY/WX    TMP DP  RH WIND       PRES   REMARKS
FORKS          CLOUDY    53  52  96 SW6       30.02R FOG
HOQUIAM        CLOUDY    54  51  90 W13       30.03R FOG
ASTORIA, OR    CLOUDY    55  50  83 W10       30.05R
$$

WAZ019-023-024-040-518-519-222000-
CASCADE MOUNTAINS AND COLUMBIA GORGE

CITY           SKY/WX    TMP DP  RH WIND       PRES   REMARKS
TROUTDALE, OR  CLOUDY    58  50  75 SW5       30.02R
THE DALLES, OR MOSUNNY   70  50  49 NW21G31   29.90R
$$

WAZ026-027-041>044-520-521-222000-
EAST SLOPES

CITY           SKY/WX    TMP DP  RH WIND       PRES   REMARKS
OMAK           SUNNY     83  44  25 N6        29.81F
WENATCHEE      PTSUNNY   75  51  43 NW12      29.85S
ELLENSBURG     PTSUNNY   73  55  53 NW8       29.87S
YAKIMA         LGT RAIN  66  55  67 W14       29.88F
$$

WAZ028-034-035-222000-
COLUMBIA BASIN

CITY           SKY/WX    TMP DP  RH WIND       PRES   REMARKS
EPHRATA        MOSUNNY   79  48  33 W7        29.82F
MOSES LAKE     SUNNY     81  51  35 W7        29.83F
PASCO          MOSUNNY   79  54  41 SW9       29.82F
HERMISTON, OR  MOSUNNY   75  53  46 NW12      29.85S
$$

WAZ036>038-222000-
NORTHEAST WASHINGTON

CITY           SKY/WX    TMP DP  RH WIND       PRES   REMARKS
SPOKANE GEIGER PTSUNNY   74  51  44 VRB5      29.86F
SPOKANE FELTS  MOSUNNY   76  49  38 CALM      29.85F
FAIRCHILD AFB  SUNNY     75  51  42 VRB3      29.87S
COEURDALENE,ID SUNNY     77  46  33 CALM      29.83F
DEER PARK      SUNNY     75  50  41 VRB3      29.86F
$$

WAZ029>033-222000-
SOUTHEAST WASHINGTON

CITY           SKY/WX    TMP DP  RH WIND       PRES   REMARKS
PULLMAN        SUNNY     72  54  53 VRB6      29.89F
LEWISTON, ID   MOSUNNY   76  54  46 VRB5      29.83F
WALLA WALLA    PTSUNNY   72  56  57 S7        29.85S
PENDLETON, OR  MOSUNNY   70  56  61 NW13G23   29.87S
$$



USA.gov is the U.S. government's official web portal to all federal, state and local government web resources and services.